Location: ??
(34.9170°N, 135.5016°E)
Time: 19:55:09
(UTC+00:00)

Tiros 1 - All Passes

Search period start: 04 March 2021 00:00
Search period end: 14 March 2021 00:00
Orbit: 630 x 664 km, 48.4° (Epoch: 03 March)

Date Brightness Start Highest point End Pass type
(mag) Time Alt. Az. Time Alt. Az. Time Alt. Az.
04 Mar - 01:11:48 10° WNW 01:16:18 41° SW 01:20:45 10° SSE daylight
04 Mar - 15:25:17 10° SE 15:26:17 11° SE 15:27:17 10° ESE night (unlit)
04 Mar - 17:03:04 10° SW 17:07:49 73° SE 17:12:36 10° NE visible
04 Mar - 18:46:16 10° W 18:50:22 28° NNW 18:54:31 10° NE visible
04 Mar - 20:30:52 10° NW 20:33:50 16° N 20:36:50 10° NE visible
04 Mar - 22:13:36 10° NW 22:17:26 23° NNE 22:21:15 10° ENE daylight
04 Mar - 23:55:24 10° NW 00:00:13 78° NE 00:04:59 10° ESE daylight
05 Mar - 01:38:54 10° W 01:41:58 17° SW 01:44:59 10° S daylight
05 Mar - 15:47:50 10° S 15:51:52 27° SE 15:55:54 10° ENE night (unlit)
05 Mar - 17:29:11 10° WSW 17:33:51 52° NNW 17:38:33 10° NE visible
05 Mar - 19:13:27 10° WNW 19:16:53 19° NNW 19:20:21 10° NNE visible
05 Mar - 20:57:24 10° NNW 21:00:33 17° N 21:03:41 10° NE visible
05 Mar - 22:39:22 10° NW 22:43:50 36° NNE 22:48:16 10° E daylight
06 Mar - 00:21:33 10° WNW 00:26:07 45° SW 00:30:39 10° SSE daylight
06 Mar - 16:12:55 10° SW 16:17:37 67° SE 16:22:23 10° ENE night (unlit)
06 Mar - 17:55:57 10° W 18:00:07 29° NNW 18:04:20 10° NE visible
06 Mar - 19:40:34 10° NW 19:43:34 16° N 19:46:34 10° NE visible
06 Mar - 21:23:25 10° NNW 21:27:10 22° NNE 21:30:54 10° ENE daylight
06 Mar - 23:05:12 10° NW 23:10:00 72° NE 23:14:47 10° ESE daylight
07 Mar - 00:48:29 10° W 00:51:48 19° SW 00:55:06 10° S daylight
07 Mar - 14:57:50 10° S 15:01:41 25° SE 15:05:34 10° ENE night (unlit)
07 Mar - 16:38:57 10° WSW 16:43:37 56° NNW 16:48:21 10° NE night (unlit)
07 Mar - 18:23:07 10° WNW 18:26:38 20° NNW 18:30:09 10° NNE visible
07 Mar - 20:07:10 10° NNW 20:10:17 17° N 20:13:22 10° NE visible
07 Mar - 21:49:12 10° NW 21:53:36 34° NNE 21:57:59 10° E daylight
07 Mar - 23:31:17 10° WNW 23:35:56 50° SW 23:40:33 10° SSE daylight
08 Mar - 15:22:46 10° SW 15:27:25 61° SE 15:32:09 10° ENE night (unlit)
08 Mar - 17:05:39 10° W 17:09:53 30° NNW 17:14:08 10° NE visible
08 Mar - 18:50:16 10° NW 18:53:17 16° N 18:56:18 10° NE visible
08 Mar - 20:33:13 10° NNW 20:36:54 21° NNE 20:40:35 10° ENE visible
08 Mar - 22:15:00 10° NW 22:19:48 66° NE 22:24:33 10° ESE daylight
08 Mar - 23:58:05 10° W 00:01:38 21° SW 00:05:10 10° S daylight
09 Mar - 14:07:51 10° S 14:11:31 23° SE 14:15:13 10° E night (unlit)
09 Mar - 15:48:43 10° WSW 15:53:24 61° NW 15:58:10 10° NE night (unlit)
09 Mar - 17:32:47 10° WNW 17:36:21 20° NNW 17:39:57 10° NNE visible
09 Mar - 19:16:56 10° NW 19:19:59 16° N 19:23:02 10° NE visible
09 Mar - 20:59:01 10° NW 21:03:21 32° NNE 21:07:40 10° E daylight
09 Mar - 22:41:03 10° WNW 22:45:45 55° SW 22:50:25 10° SE daylight
10 Mar - 14:32:38 10° SW 14:37:14 55° SE 14:41:54 10° ENE night (unlit)
10 Mar - 16:15:21 10° W 16:19:38 32° NNW 16:23:57 10° NE night (unlit)
10 Mar - 17:59:57 10° NW 18:03:00 16° N 18:06:02 10° NE visible
10 Mar - 19:43:02 10° NNW 19:46:38 20° NNE 19:50:14 10° ENE visible
10 Mar - 21:24:48 10° NW 21:29:34 61° NNE 21:34:19 10° ESE daylight
10 Mar - 23:07:43 10° W 23:11:29 23° SW 23:15:12 10° S daylight
11 Mar - 13:17:55 10° S 13:21:21 20° SE 13:24:51 10° E night (unlit)
11 Mar - 14:58:29 10° WSW 15:03:11 66° NW 15:07:57 10° NE night (unlit)
11 Mar - 16:42:27 10° WNW 16:46:05 21° NNW 16:49:44 10° NNE night (unlit)
11 Mar - 18:26:41 10° NW 18:29:42 16° N 18:32:43 10° NE visible
11 Mar - 20:08:49 10° NW 20:13:06 31° NNE 20:17:22 10° E visible
11 Mar - 21:50:48 10° WNW 21:55:33 61° SW 22:00:16 10° SE daylight
12 Mar - 13:42:31 10° SSW 13:47:03 50° SE 13:51:39 10° ENE night (unlit)
12 Mar - 15:25:04 10° W 15:29:23 34° NNW 15:33:45 10° NE night (unlit)
12 Mar - 17:09:39 10° NW 17:12:43 17° N 17:15:47 10° NNE visible
12 Mar - 18:52:50 10° NNW 18:56:21 20° NNE 18:59:53 10° ENE visible
12 Mar - 20:34:36 10° NW 20:39:21 56° NNE 20:44:05 10° ESE visible
12 Mar - 22:17:23 10° WNW 22:21:18 25° SW 22:25:12 10° S daylight
13 Mar - 12:27:59 10° S 12:31:12 18° SE 12:34:27 10° E night (unlit)
13 Mar - 14:08:16 10° WSW 14:12:58 72° NW 14:17:45 10° NE night (unlit)
13 Mar - 15:52:08 10° WNW 15:55:49 22° NNW 15:59:31 10° NNE night (unlit)
13 Mar - 17:36:27 10° NW 17:39:25 16° N 17:42:24 10° NE visible
13 Mar - 19:18:39 10° NW 19:22:51 29° NNE 19:27:03 10° E visible
13 Mar - 21:00:34 10° WNW 21:05:21 67° SW 21:10:07 10° SE daylight
